Regional Weather Roundup
Issued by NWS

Home | Current Version | Previous Version | Text Only | Print | Product List | Glossary On
Versions: 1 2 3 4 5 6 7 8 9 10 11 12 13 14 15 16 17 18 19 20 21 22 23 24 25 26 27 28 29 30 31 32 33 34 35 36 37 38 39 40 41 42 43 44 45 46 47 48 49 50
000
ASUS43 KLOT 210709
RWRIL

ILLINOIS REGIONAL WEATHER ROUNDUP
NATIONAL WEATHER SERVICE CHICAGO/ROMEOVILLE IL
200 AM CDT SAT OCT 21 2017

NOTE: "FAIR" INDICATES FEW OR NO CLOUDS BELOW 12,000 FEET WITH NO
SIGNIFICANT WEATHER AND/OR OBSTRUCTIONS TO VISIBILITY.

* THESE STATIONS ARE NOT UNDER NWS QUALITY CONTROL. THEY ALSO MAY NOT
  REPORT WEATHER SUCH AS PRECIPITATION OR FOG.

ILZ001-002-007-009-015-016-024-210800-
NORTHWEST ILLINOIS

CITY           SKY/WX    TMP DP  RH WIND       PRES   REMARKS
MOLINE         MOCLDY    66  50  56 S12       29.97S
STERLING*      MOCLDY    65  51  60 VRB3        N/A
SAVANNA*       CLOUDY    61  49  65 S7        29.99R
$$

ILZ003-004-008-010-011-017-018-210800-
NORTH CENTRAL ILLINOIS

CITY           SKY/WX    TMP DP  RH WIND       PRES   REMARKS
ROCKFORD       CLOUDY    61  49  64 S6        30.03R
FREEPORT*      CLOUDY    61  49  63 S10       30.01S
ROCHELLE*      CLOUDY    60  50  69 S6        30.03S
DE KALB*       CLOUDY    59  49  70 S9        30.05S
PERU*          CLOUDY    63  50  61 S12       30.04R
$$

ILZ005-006-012>014-019>023-210800-
NORTHEAST ILLINOIS

CITY           SKY/WX    TMP DP  RH WIND       PRES   REMARKS
CHICAGO-OHARE  CLOUDY    65  48  54 S13       30.05R
CHICAGO-MIDWAY CLOUDY    65  49  56 S12       30.06S
AURORA         CLOUDY    60  50  69 SE8       30.05F
LANSING*       CLOUDY    61  51  69 S8        30.08S
JOLIET*        MOCLDY    64  50  60 S9        30.06F
WAUKEGAN       CLOUDY    65  48  54 S15       30.04R
DUPAGE AIRPORT CLOUDY    61  50  67 S9        30.05F
KANKAKEE*      CLOUDY    59  49  69 S8        30.10R
WHEELING       CLOUDY    66  49  54 S10       30.07R
MORRIS*        CLOUDY    59  49  68 S6        30.05S
ROMEOVILLE*    CLOUDY    59  50  73 S8        30.07S
NORTHERLY ISL    N/A     66  46  48 S9          N/A
$$

LMZ740>746-210800-
SOUTHERN LAKE MICHIGAN

STATION/POSITION SKY/WX   TEMP    WIND        PRES    VSBY  WAVE
                          AIR SEA DIR/SP/G                  HT/PER
                          (F)     (DEG/KT/KT) (MB)    (MI)  (FT/S)
SOUTHERN BUOY              63 61  180/ 16/ 19 1017.4          3/ 4
WILMETTE HARBOR            65 60  200/ 14/ 17   N/A           2/ 3
HARRISON CRIB              67     200/ 22/ 25   N/A
BURNHAM HARBOR             65     210/  7/ 19   N/A
CALUMET HARBOR             64     180/  7/ 12 1017.4F
BURNS HARBOR               63     180/ 11/ 17 1019.0S
MICHIGAN CITY              62     170/ 13/ 15   N/A
MICHIGAN CITY 6N           61 58  180/ 10/ 10   N/A           1
ST. JOSEPH                 61 59  190/ 10/ 12 1019.5          1/ 3
$$

ILZ025>027-034>036-040-047-049-050-058-095>099-210800-
WEST-CENTRAL ILLINOIS

CITY           SKY/WX    TMP DP  RH WIND       PRES   REMARKS
QUINCY         PTCLDY    63  51  65 S10       29.98F
GALESBURG*     MOCLDY    69  59  70 S7        30.01R
MACOMB*        PTCLDY    60  51  72 S9        30.02S
JACKSONVILLE*  CLOUDY    64  51  61 S12       30.02S
PITTSFIELD*    CLOUDY    64  52  65 SE9       30.02R
$$

ILZ028>032-037-038-041>044-048-051>054-059>061-210800-
CENTRAL ILLINOIS

CITY           SKY/WX    TMP DP  RH WIND       PRES   REMARKS
PONTIAC        CLOUDY    61  50  67 S10       30.06S
BLOOMINGTON    PTCLDY    60  49  66 S13       30.07S
DECATUR        CLOUDY    62  48  60 S10       30.08S
PEORIA         CLOUDY    62  52  69 S12       30.03S
LACON*         MOCLDY    65  51  61 S9        30.02S
LINCOLN*       CLOUDY    62  53  70 S9        30.06R
SPRINGFIELD    CLOUDY    64  52  64 S13G18    30.04S
TAYLORVILLE    CLOUDY    61  50  67 S6        30.08R
$$

ILZ033-039-045-046-055>057-062-063-210800-
EAST-CENTRAL ILLINOIS

CITY           SKY/WX    TMP DP  RH WIND       PRES   REMARKS
CHAMPAIGN      CLOUDY    58  49  72 SE8       30.10S
DANVILLE*      CLOUDY    58  48  69 S3        30.09F
RANTOUL*       CLOUDY    57  51  80 SE7       30.09F
MATTOON        CLOUDY    58  51  78 SE8       30.09F
PARIS*         MOCLDY    55  50  84 SE7       30.12F
$$

ILZ079-100>102-210800-
SOUTHWEST ILLINOIS

CITY           SKY/WX    TMP DP  RH WIND       PRES   REMARKS
ALTON          CLOUDY    57  53  86 CALM      30.05F
BELLEVILLE     CLEAR     57  50  77 SE3       30.08R
CAHOKIA*       CLOUDY    65  50  58 S6        30.04S
SPARTA*        CLOUDY    63  50  63 S9        30.07R
$$

ILZ064>066-069>071-074>076-080>082-084>086-088>090-092>094-210800-
SOUTH-CENTRAL ILLINOIS

CITY           SKY/WX    TMP DP  RH WIND       PRES   REMARKS
CARBONDALE     PTCLDY    55  50  83 SE3       30.09S
CAIRO*         CLOUDY    52  51  96 CALM      30.11S
EFFINGHAM*     CLOUDY    59  51  75 SE5       30.11S
MARION         PTCLDY    56  50  79 CALM      30.10S
MT. VERNON     CLOUDY    59  50  72 S6        30.10S
CENTRALIA*     MOCLDY    63  51  65 SE13      30.06F
SALEM*         CLOUDY    64  49  57 SE3       30.08S
METROPOLIS*    CLOUDY    54  52  93 E3        30.12F
$$

ILZ067-068-072-073-078-083-087-091-210800-
SOUTHEAST ILLINOIS

CITY           SKY/WX    TMP DP  RH WIND       PRES   REMARKS
LAWRENCEVILLE  PTCLDY    56  49  77 CALM      30.13S
FLORA*         PTCLDY    59  52  78 SE7       30.09F
FAIRFIELD*     CLOUDY    59  50  71 SE5       30.10S
HARRISBURG*    CLOUDY    54  50  86 SE5       30.11F
ROBINSON*      CLOUDY    51  49  92 CALM      30.14R
CARMI*         CLOUDY    52  48  87 SE3       30.12S
$$

ABBREVIATIONS USED IN REMARKS
   TC - TEMPERATURE IN CELSIUS
  WCI - WIND CHILL INDEX
   HX - HEAT INDEX
  VSB - VISIBILITY
$$




USA.gov is the U.S. government's official web portal to all federal, state and local government web resources and services.